, AK

(GMT )
Shemya

Weather History for PASY - October, 2012

Change the Weather History Date:

Thursday, October 18, 2012

  Actual Average Record
Temperature  
Mean Temperature 44 °F -  
Max Temperature 46 °F 45 °F 52 °F (1996)
Min Temperature 41 °F 39 °F 30 °F (1970)
Degree Days  
Heating Degree Days 22    
Moisture  
Dew Point 40 °F    
Average Humidity 86    
Maximum Humidity 93    
Minimum Humidity 68    
Precipitation  
Precipitation 0.00 in - - ()
Sea Level Pressure  
Sea Level Pressure 30.37 in    
Wind  
Wind Speed 22 mph (SE)    
Max Wind Speed 31 mph    
Max Gust Speed 36 mph    
Visibility 10 miles    
Events Rain    
Averages and records for this station are not official NWS values.
T = Trace of Precipitation, MM = Missing Value Source: NWS Daily Summary

Daily Weather History Graph

Daily Weather History Graph

Search for Another Location

Airport or City:

Trip Planner

Search our weather history database for the weather conditions in past years. The results will help you decide how hot, cold, wet, or windy it might be!

Date:

Astronomy

Oct. 17, 2012 Rise Set
Actual Time 9:54 AM HDT 8:22 PM HDT
Civil Twilight 9:19 AM HDT 8:56 PM HDT
Nautical Twilight 8:39 AM HDT 9:36 PM HDT
Astronomical Twilight 7:59 AM HDT 10:16 PM HDT
Moon 2:24 PM HDT (10/18) 10:41 PM HDT (10/18)
Length of Visible Light 11h 37m
Length of Day
10h 27m
Waxing Crescent, 16% of the Moon is Illuminated
Oct 18
Waxing Crescent
Oct 21
First Quarter
Oct 29
Full
Nov 6
Last Quarter
Nov 13
New

Hourly Weather History & Observations

Time (HDT) Temp. Windchill Dew Point Humidity Pressure Visibility Wind Dir Wind Speed Gust Speed Precip Events Conditions
12:56 AM 44.1 °F 35.7 °F 39.9 °F 85% 30.45 in 10.0 mi SE 20.7 mph - N/A   Overcast
1:56 AM 44.1 °F 36.2 °F 41.0 °F 89% 30.45 in 10.0 mi SE 18.4 mph - N/A   Overcast
2:15 AM 44.6 °F 36.6 °F 41.0 °F 87% 30.44 in 10.0 mi SE 19.6 mph - N/A   Overcast
2:56 AM 44.1 °F 35.9 °F 41.0 °F 89% 30.44 in 10.0 mi SE 19.6 mph - N/A   Overcast
3:56 AM 44.1 °F 35.7 °F 41.0 °F 89% 30.44 in 10.0 mi SSE 20.7 mph - N/A   Mostly Cloudy
4:23 AM 44.6 °F 36.9 °F 41.0 °F 87% 30.43 in 10.0 mi SSE 18.4 mph - N/A   Mostly Cloudy
4:32 AM 44.6 °F 36.6 °F 41.0 °F 87% 30.43 in 10.0 mi SSE 19.6 mph - N/A   Mostly Cloudy
4:42 AM 44.6 °F 36.1 °F 41.0 °F 87% 30.43 in 10.0 mi SSE 21.9 mph - N/A   Mostly Cloudy
4:56 AM 44.1 °F 35.4 °F 41.0 °F 89% 30.44 in 10.0 mi SSE 21.9 mph - N/A   Overcast
5:05 AM 44.6 °F 36.1 °F 41.0 °F 87% 30.43 in 10.0 mi SSE 21.9 mph - N/A   Overcast
5:47 AM 44.6 °F 35.3 °F 39.2 °F 81% 30.43 in 10.0 mi SSE 26.5 mph 31.1 mph N/A   Overcast
5:56 AM 44.1 °F 35.0 °F 39.9 °F 85% 30.43 in 10.0 mi SSE 24.2 mph 32.2 mph N/A   Overcast
6:09 AM 44.6 °F 35.7 °F 39.2 °F 81% 30.43 in 10.0 mi SSE 24.2 mph - N/A   Overcast
6:49 AM 44.6 °F 36.1 °F 37.4 °F 76% 30.43 in 10.0 mi SSE 21.9 mph - N/A   Overcast
6:56 AM 44.1 °F 35.2 °F 37.9 °F 79% 30.43 in 10.0 mi SSE 23.0 mph - N/A   Overcast
7:15 AM 44.6 °F 35.5 °F 37.4 °F 76% 30.42 in 10.0 mi SSE 25.3 mph - N/A   Overcast
7:56 AM 44.1 °F 35.0 °F 37.0 °F 76% 30.43 in 10.0 mi SSE 24.2 mph - N/A   Overcast
8:56 AM 44.1 °F 35.4 °F 37.0 °F 76% 30.42 in 10.0 mi SSE 21.9 mph - N/A   Overcast
9:56 AM 44.1 °F 35.9 °F 37.9 °F 79% 30.43 in 10.0 mi SE 19.6 mph - N/A   Overcast
10:56 AM 44.1 °F 36.2 °F 39.0 °F 82% 30.43 in 10.0 mi SSE 18.4 mph - N/A   Overcast
11:56 AM 44.1 °F 35.4 °F 39.9 °F 85% 30.42 in 10.0 mi SSE 21.9 mph - N/A   Mostly Cloudy
12:56 PM 44.1 °F 35.4 °F 39.9 °F 85% 30.42 in 10.0 mi SE 21.9 mph - N/A   Mostly Cloudy
1:27 PM 44.6 °F 36.4 °F 41.0 °F 87% 30.41 in 10.0 mi SE 20.7 mph - N/A   Overcast
1:37 PM 44.6 °F 36.4 °F 41.0 °F 87% 30.41 in 10.0 mi SE 20.7 mph - N/A   Overcast
1:47 PM 44.6 °F 36.4 °F 41.0 °F 87% 30.41 in 10.0 mi SE 20.7 mph - N/A   Overcast
1:56 PM 45.0 °F 36.4 °F 41.0 °F 86% 30.41 in 10.0 mi SE 23.0 mph - N/A   Overcast
2:16 PM 44.6 °F 36.1 °F 41.0 °F 87% 30.40 in 10.0 mi SE 21.9 mph - N/A   Overcast
2:56 PM 45.0 °F 36.6 °F 41.0 °F 86% 30.39 in 10.0 mi SE 21.9 mph 28.8 mph N/A   Overcast
3:31 PM 44.6 °F 35.9 °F 41.0 °F 87% 30.39 in 10.0 mi SE 23.0 mph - N/A   Overcast
3:46 PM 44.6 °F 36.1 °F 41.0 °F 87% 30.38 in 10.0 mi SE 21.9 mph - N/A   Overcast
3:56 PM 46.0 °F 38.5 °F 41.0 °F 83% 30.38 in 10.0 mi SSE 19.6 mph - N/A   Overcast
4:04 PM 44.6 °F 36.9 °F 41.0 °F 87% 30.38 in 10.0 mi SSE 18.4 mph - N/A   Overcast
4:44 PM 44.6 °F 35.9 °F 41.0 °F 87% 30.36 in 10.0 mi SE 23.0 mph - N/A   Overcast
4:56 PM 45.0 °F 36.4 °F 41.0 °F 86% 30.35 in 10.0 mi SE 23.0 mph - N/A   Overcast
5:08 PM 44.6 °F 35.7 °F 41.0 °F 87% 30.35 in 10.0 mi SE 24.2 mph - N/A   Overcast
5:38 PM 44.6 °F 36.1 °F 41.0 °F 87% 30.34 in 10.0 mi SE 21.9 mph - N/A   Overcast
5:56 PM 45.0 °F 36.4 °F 41.0 °F 86% 30.34 in 10.0 mi SSE 23.0 mph 29.9 mph N/A   Overcast
6:56 PM 44.1 °F 34.4 °F 42.1 °F 93% 30.32 in 10.0 mi SE 27.6 mph - N/A   Overcast
7:03 PM 44.6 °F 35.3 °F 41.0 °F 87% 30.32 in 10.0 mi SE 26.5 mph - N/A   Overcast
7:21 PM 44.6 °F 34.9 °F 41.0 °F 87% 30.31 in 10.0 mi SE 28.8 mph - N/A   Overcast
7:56 PM 44.1 °F 34.6 °F 41.0 °F 89% 30.31 in 10.0 mi SE 26.5 mph - N/A   Overcast
8:09 PM 44.6 °F 35.5 °F 41.0 °F 87% 30.30 in 10.0 mi SE 25.3 mph 29.9 mph N/A   Overcast
8:42 PM 44.6 °F 35.5 °F 42.8 °F 93% 30.29 in 10.0 mi SE 25.3 mph - N/A Rain Light Rain
8:51 PM 44.6 °F 35.7 °F 41.0 °F 87% 30.29 in 10.0 mi SE 24.2 mph - N/A   Overcast
8:56 PM 44.1 °F 34.8 °F 41.0 °F 89% 30.29 in 10.0 mi SE 25.3 mph - N/A   Overcast
9:15 PM 44.6 °F 35.5 °F 41.0 °F 87% 30.28 in 10.0 mi SE 25.3 mph - N/A   Overcast
9:23 PM 44.6 °F 35.1 °F 41.0 °F 87% 30.28 in 10.0 mi SE 27.6 mph 32.2 mph N/A   Mostly Cloudy
9:37 PM 44.6 °F 35.3 °F 41.0 °F 87% 30.27 in 10.0 mi SE 26.5 mph - N/A   Mostly Cloudy
9:56 PM 44.1 °F 34.6 °F 42.1 °F 93% 30.27 in 10.0 mi SE 26.5 mph 35.7 mph N/A   Overcast
10:27 PM 44.6 °F 34.6 °F 41.0 °F 87% 30.27 in 10.0 mi SE 31.1 mph - N/A   Overcast
10:56 PM 44.1 °F 34.0 °F 41.0 °F 89% 30.26 in 10.0 mi SE 29.9 mph - N/A   Overcast
11:47 PM 44.6 °F 34.9 °F 41.0 °F 87% 30.25 in 10.0 mi SE 28.8 mph - N/A   Overcast
11:56 PM 44.1 °F 34.2 °F 42.1 °F 93% 30.25 in 10.0 mi SE 28.8 mph - N/A   Overcast